Regional Weather Roundup
Issued by NWS

Home | Current Version | Previous Version | Graphics & Text | Print | Product List | Glossary On
Versions: 1 2 3 4 5 6 7 8 9 10 11 12 13 14 15 16 17 18 19 20 21 22 23 24 25 26 27 28 29 30 31 32 33 34 35 36 37 38 39 40 41 42 43 44 45 46 47 48 49 50
000
ASUS45 KCYS 240010
RWRWY

WYOMING REGIONAL WEATHER ROUNDUP
NATIONAL WEATHER SERVICE CHEYENNE WY
500 PM MST SUN NOV 23 2014

NOTE:  "FAIR" INDICATES FEW OR NO CLOUDS BELOW 12,000 FEET
WITH NO SIGNIFICANT WEATHER AND/OR OBSTRUCTIONS TO VISIBILITY.

WYZ001-240100-
YELLOWSTONE NATIONAL PARK

CITY           SKY/WX    TMP DP  RH WIND       PRES   REMARKS
LK YELLOWSTONE   N/A     20  11  68 W7        29.99R WCI  11
6HR MIN TEMP:  20; 6HR MAX TEMP:  24;

W YELLOWSTONE  NOT AVBL

$$
WYZ002>013-054>058-071-098>099-240100-
NORTHERN WYOMING

CITY           SKY/WX    TMP DP  RH WIND       PRES   REMARKS
JACKSON        LGT SNOW  27  21  80 S13       30.04S VSB 1   WCI  16
CODY           CLEAR     36   9  32 NW12      29.88S WCI  27
GREYBULL       CLEAR     35  18  49 NW13      29.89S WCI  26
6HR MIN TEMP:  35; 6HR MAX TEMP:  40;

WORLAND        CLEAR     28  19  69 S9        29.91S WCI  19
6HR MIN TEMP:  28; 6HR MAX TEMP:  39;

SHERIDAN       PTCLDY    35  17  47 NW13      29.85R WCI  26
6HR MIN TEMP:  32; 6HR MAX TEMP:  40; 6HR PCP: TRACE;

BUFFALO        PTCLDY    32  11  41 NW9       29.83R WCI  24
6HR MIN TEMP:  32; 6HR MAX TEMP:  37; 6HR PCP: TRACE;

GILLETTE       NOT AVBL
HULETT           N/A    N/A N/A N/A MISG        N/A
NEWCASTLE      FAIR      30  23  74 NW16      29.79S WCI  19

$$
WYZ014>020-022>026-101>103-240100-
CENTRAL WYOMING

CITY           SKY/WX    TMP DP  RH WIND       PRES   REMARKS
BIG PINEY      CLEAR     38  12  34 N10       30.03S WCI  31
6HR MIN TEMP:  34; 6HR MAX TEMP:  42;

PINEDALE       PTCLDY    19  12  73 NW21      30.01S WCI   3
DUBOIS         FAIR      23  10  58 W32G43    29.92S WCI   5
LANDER         NOT AVBL
RIVERTON       CLEAR     31  12  45 NW24G36   29.92S WCI  17
6HR MIN TEMP:  31; 6HR MAX TEMP:  36;

CASPER         CLEAR     26  14  60 W6        29.89R WCI  19
6HR MIN TEMP:  26; 6HR MAX TEMP:  37;

DOUGLAS        MOCLDY   N/A N/A N/A NW8       29.87R
                                      6HR PCP: TRACE;


$$
WYZ021-027>030-104>119-240100-
SOUTHERN WYOMING

CITY           SKY/WX    TMP DP  RH WIND       PRES   REMARKS
EVANSTON       CLOUDY    22  15  75 W10       30.13R WCI  11
6HR MIN TEMP:  22; 6HR MAX TEMP:  29;

FORT BRIDGER   FAIR      24  16  69 W14G22    30.12S WCI  12
ROCK SPRINGS   PTCLDY    25   9  50 W17G26    30.02R WCI  12
6HR MIN TEMP:  25; 6HR MAX TEMP:  31;

DIXON          FAIR      26  12  57 NW16      30.00R WCI  13
RAWLINS        CLEAR     24  12  60 W12G22    29.92R WCI  13
6HR MIN TEMP:  24; 6HR MAX TEMP:  31; 6HR PCP: TRACE;

SARATOGA       FAIR      21  10  63 W6        29.92R WCI  14
LARAMIE        PTCLDY    20  13  74 NW15      29.83S WCI   6
6HR MIN TEMP:  20; 6HR MAX TEMP:  29; 6HR PCP: TRACE;

CHEYENNE       PTCLDY    27  14  58 NW14G25   29.84R WCI  16
6HR MIN TEMP:  27; 6HR MAX TEMP:  36;

TORRINGTON     PTCLDY    33  16  49 NW12      29.82R WCI  24
6HR MIN TEMP:  33; 6HR MAX TEMP:  43;

PINE BLUFFS    FAIR      30  10  43 NW13      29.84R WCI  20

$$


USA.gov is the U.S. government's official web portal to all federal, state and local government web resources and services.